Regional Weather Roundup
Issued by NWS

Home | Current Version | Previous Version | Graphics & Text | Print | Product List | Glossary On
Versions: 1 2 3 4 5 6 7 8 9 10 11 12 13 14 15 16 17 18 19 20 21 22 23 24 25 26 27 28 29 30 31 32 33 34 35 36 37 38 39 40 41 42 43 44 45 46 47 48 49 50
000
ASUS43 KDTX 300210
RWRMI
MICHIGAN HOURLY REGIONAL WEATHER ROUNDUP
NATIONAL WEATHER SERVICE DETROIT/PONTIAC MI
1000 PM EDT WED OCT 29 2014

NOTE: "FAIR" INDICATES FEW OR NO CLOUDS BELOW 12,000 FEET WITH NO
SIGNIFICANT WEATHER AND/OR OBSTRUCTION TO VISIBILITY.

MIZ047>049-052>055-059>063-066>070-074>076-081>083-300300-
SOUTHEAST LOWER MICHIGAN

CITY           SKY/WX    TMP DP  RH WIND       PRES   REMARKS
ADRIAN         CLOUDY    41  37  86 W6        30.10R
ALMA           CLEAR     37  34  88 W6        30.09R WCI  32
ANN ARBOR      CLOUDY    43  35  73 W8        30.07S
BAD AXE        CLOUDY    43  38  82 NW7       30.05R
CARO           MOCLDY    43  37  78 CALM      30.06R
DETROIT CITY   CLOUDY    48  35  60 W7        30.07R
DETROIT        MOCLDY    45  36  70 W7        30.08R
FLINT          CLOUDY    46  37  71 NW9       30.07R
GROSSE ILE     MOCLDY    45  37  76 W6        30.06S
HILLSDALE      CLOUDY    42  41  96 W6        30.09R
HOWELL         CLOUDY    43  37  78 W5        30.07R

CITY           SKY/WX    TMP DP  RH WIND       PRES   REMARKS
JACKSON        CLOUDY    43  37  79 W7        30.09R
LAMBERTVILLE   PTCLDY    43  37  81 W5        30.10R
LANSING        CLOUDY    44  35  70 NW7       30.09R
LAPEER         CLOUDY    45  36  70 NW9       30.05S
MASON          CLOUDY    43  37  78 W6        30.08S
MONROE         PTCLDY    39  37  93 W6        30.07S WCI  35
MT. CLEMENS    CLOUDY    46  36  66 W10       30.03R
PONTIAC        CLOUDY    44  34  67 W10       30.05R
PORT HOPE        N/A     46  37  71 NW10G17   30.02R
PORT HURON     CLOUDY    45  37  76 W5        30.04R
TRI CITIES     PTCLDY    41  34  76 W6        30.08R
TROY           CLOUDY    47  34  59 W7        30.07S
SAGINAW HB     CLEAR     41  34  75 NW6       30.07R
$$
MIZ043>046-050>051-056>058-064>065-071>073-077>080-300300-
SOUTHWEST LOWER MICHIGAN

CITY           SKY/WX    TMP DP  RH WIND       PRES   REMARKS
BATTLE CREEK   CLOUDY    44  35  70 NW6       30.10S
BENTON HARBOR  CLOUDY    47  33  58 NW6       30.12S
BIG RAPIDS     PTCLDY    37  37  99 CALM      30.08S
COLDWATER      CLOUDY    43  40  89 W6        30.11R
FREMONT        CLOUDY    40  37  86 CALM      30.09R
HOLLAND        CLOUDY    47  36  65 CALM      30.11S
GRAND RAPIDS   PTCLDY    41  36  82 N3        30.10S
IONIA          FAIR      41  35  80 NW6       30.09R
KALAMAZOO      CLOUDY    45  36  70 NW5       30.11S
LUDINGTON      CLOUDY    42  39  89 NE3       30.09S
MARSHALL       CLOUDY    41  38  86 W6        30.09S
MOUNT PLEASANT CLEAR     37  34  89 W3        30.08R
MUSKEGON       CLOUDY    45  37  73 CALM      30.11R
SOUTH HAVEN    CLOUDY    48  36  63 NW6       30.11S
$$
MIZ016>042-300300-
NORTHERN LOWER MICHIGAN

CITY           SKY/WX    TMP DP  RH WIND       PRES   REMARKS
ALPENA         CLEAR     39  32  76 NW8G18    30.04R WCI  33
BEAVER ISLAND  CLEAR     40  34  79 N6        30.06S
BELLAIRE       CLOUDY    42  35  73 CALM      30.08R
CADILLAC       CLOUDY    38  35  89 CALM      30.06S
CHARLEVOIX     CLEAR     40  34  77 N9        30.09S WCI  34
FRANKFORT      CLOUDY    45  36  71 CALM      30.08S
GAYLORD        CLOUDY    39  33  79 VRB7G17   30.04S WCI  34
GRAYLING       MOCLDY    38  34  85 NW8       30.06R WCI  32
HARBOR SPRINGS MOCLDY    39  33  77 W6        30.06S WCI  35
HOUGHTON LAKE  PTCLDY    38  36  92 W6        30.06R WCI  33
MANISTEE       CLOUDY    41  37  87 CALM      30.09S
OSCODA         CLOUDY    43  34  71 NW8       30.03R
PELLSTON       CLOUDY    41  33  73 NW10      30.06S
ROGERS CITY    MOCLDY    39  34  81 W9G18     30.05R WCI  33
TRAVERSE CITY  CLOUDY    45  36  70 N3        30.07S
$$
MIZ007>008-015-300300-
EASTERN UPPER MICHIGAN

CITY           SKY/WX    TMP DP  RH WIND       PRES   REMARKS
KINROSS        MOCLDY    36  36 100 W7        30.03R WCI  30
MACKINAC ISLAN MOCLDY    37  33  83 W9        30.05S WCI  31
NEWBERRY       MOCLDY    35  32  89 NW3       30.04S
S. S. MARIE    LGT RAIN  38  32  79 NW7       30.02R WCI  33
MUNISING         N/A     38  34  85 CALM      30.06S
$$
MIZ004>006-011>014-085-300300-
CENTRAL UPPER MICHIGAN

CITY           SKY/WX    TMP DP  RH WIND       PRES   REMARKS
MANISTIQUE     CLEAR     29  28  96 N3        30.06S
ESCANABA       CLEAR     37  32  81 N5        30.07R WCI  34
MENOMINEE      CLOUDY    45  34  65 CALM      30.06S
SAWYER-GWINN   MOCLDY    34  32  93 CALM      30.05S
$$
MIZ001>003-009>011-084-300300-
WESTERN UPPER MICHIGAN

CITY           SKY/WX    TMP DP  RH WIND       PRES   REMARKS
IRON MOUNTAIN  CLOUDY    37  32  82 W3        30.06R
HOUGHTON       CLOUDY    39  33  79 S5        30.04S
COPPER HARBOR    N/A     42  34  73 N9        30.04S
IRONWOOD       CLOUDY    39  34  81 W5        30.05S
$$

ABBREVIATIONS USED IN REMARKS
   TC - TEMPERATURE IN CELSIUS
  WCI - WIND CHILL INDEX
   HX - HEAT INDEX
  VSB - VISIBILITY




USA.gov is the U.S. government's official web portal to all federal, state and local government web resources and services.